Home > Weather > Panipat > Past weeks

Flag for India Past Weather in Panipat, Haryana, India — Yesterday and Last 2 Weeks

Now
88 °F

Scattered clouds.


Feels Like: 105 °F
Forecast: 78 / 86 °F
Wind: 5 mph from Southeast

Location: New Delhi Palam Airport

Current Time: Jul 26, 2016 at 10:17:16 AM

Latest Report: Jul 26, 2016 at 9:30 AM


Visibility: 1 mi

Pressure: 29.65 "Hg

Humidity: 79%

Dew Point: 81 °F

Location of PanipatLocation

Past Weather in Panipat — Graph

°F

Panipat Temperature Yesterday

Maximum temperature yesterday: 97 °F (at 11:30 AM)
Minimum temperature yesterday: 84 °F (at 12:00 AM)
Average temperature yesterday: 89 °F

High & Low Weather Summary for the Past Weeks

 TemperatureHumidityPressure
High100 °F (Jul 21, 4:00 PM)100% (Jul 16, 6:30 AM)29.71 "Hg (Jul 16, 6:30 AM)
Low77 °F (Jul 16, 6:30 AM)47% (Jul 21, 4:30 PM)29.45 "Hg (Jul 11, 4:00 PM)
Average87 °F77%29.56 "Hg
* Reported Jul 11 8:30 AM — Jul 26 9:00 AM, Panipat, Weather by CustomWeather, © 2016

Note: Actual official high and low records may vary slightly from our data, if they occured in-between our weather recording intervals... More about our weather records

Advertising

Panipat Weather History for the Previous 24 Hours

Scroll right to see more
 ConditionsComfort  
Time TempWeatherWind HumidityBarometerVisibility
9:00 AM
Tue, Jul 26
88 °FScattered clouds.5 mph79%29.68 "Hg1 mi
8:30 AM88 °FFog.5 mph79%29.68 "Hg1 mi
8:00 AM86 °FFog.5 mph84%29.65 "Hg1 mi
7:30 AM86 °FFog.5 mph84%29.65 "Hg1 mi
7:00 AM86 °FFog.2 mph84%29.65 "Hg1 mi
6:30 AM84 °FFog.2 mph89%29.62 "Hg1 mi
6:00 AM84 °FFog.3 mph89%29.62 "Hg1 mi
5:30 AM84 °FFog.3 mph89%29.62 "Hg1 mi
5:00 AM84 °FFog.5 mph89%29.62 "Hg1 mi
4:30 AM84 °FFog.5 mph89%29.62 "Hg1 mi
4:00 AM84 °FFog.2 mph89%29.62 "Hg1 mi
3:30 AM84 °FFog.2 mph89%29.62 "Hg1 mi
3:00 AM84 °FFog.3 mph94%29.62 "Hg1 mi
2:30 AM86 °FFog.3 mph89%29.62 "Hg1 mi
2:00 AM86 °FFog.5 mph84%29.62 "Hg1 mi
1:30 AM86 °FFog.5 mph84%29.62 "Hg1 mi
1:00 AM86 °FFog.6 mph84%29.65 "Hg1 mi
12:30 AM88 °FFog.6 mph79%29.65 "Hg1 mi
12:00 AM88 °FFog.6 mph79%29.65 "Hg1 mi
11:30 PM
Mon, Jul 25
88 °FFog.6 mph79%29.65 "Hg1 mi
11:00 PM88 °FFog.2 mph79%29.65 "Hg1 mi
10:30 PM88 °FPassing clouds.2 mph79%29.65 "Hg1 mi
10:00 PM88 °FPassing clouds.3 mph75%29.65 "Hg1 mi
9:30 PM90 °FPassing clouds.5 mph71%29.62 "Hg1 mi
9:00 PM90 °FPassing clouds.5 mph71%29.62 "Hg2 mi
8:30 PM90 °FPassing clouds.5 mph71%29.62 "Hg2 mi
8:00 PM91 °FPassing clouds.7 mph63%29.59 "Hg2 mi
7:30 PM91 °FScattered clouds.7 mph63%29.59 "Hg2 mi
7:00 PM93 °FScattered clouds.9 mph59%29.59 "Hg2 mi
6:30 PM93 °FScattered clouds.9 mph63%29.56 "Hg2 mi
6:00 PM93 °FScattered clouds.7 mph63%29.56 "Hg2 mi
5:30 PM95 °FScattered clouds.9 mph56%29.56 "Hg2 mi
5:00 PM97 °FScattered clouds.6 mph53%29.56 "Hg2 mi
4:30 PM95 °FBroken clouds.6 mph56%29.56 "Hg2 mi
4:00 PM93 °FBroken clouds.7 mph59%29.59 "Hg2 mi
3:30 PM93 °FBroken clouds.7 mph59%29.59 "Hg2 mi
2:30 PM91 °FBroken clouds.8 mph63%29.62 "Hg1 mi
2:00 PM88 °FLight rain. Broken clouds.6 mph70%29.65 "Hg1 mi
1:30 PM88 °FRain. Broken clouds.9 mph70%29.65 "Hg1 mi
1:00 PM93 °FBroken clouds.9 mph59%29.65 "Hg2 mi
12:30 PM95 °FBroken clouds.7 mph56%29.65 "Hg2 mi
12:00 PM97 °FScattered clouds.6 mph53%29.65 "Hg2 mi
11:30 AM97 °FScattered clouds.6 mph53%29.65 "Hg2 mi
11:00 AM95 °FScattered clouds.6 mph56%29.65 "Hg2 mi
10:30 AM93 °FScattered clouds.6 mph59%29.65 "Hg2 mi
10:00 AM91 °FScattered clouds.5 mph67%29.65 "Hg2 mi
Weather by CustomWeather, © 2016

See weather overviewHow to use our weather pages